Regional Weather Roundup
Issued by NWS

Home | Current Version | Previous Version | Graphics & Text | Print | Product List | Glossary On
Versions: 1 2 3 4 5 6 7 8 9 10 11 12 13 14 15 16 17 18 19 20 21 22 23 24 25 26 27 28 29 30 31 32 33 34 35 36 37 38 39 40 41 42 43 44 45 46 47 48 49 50
000
ASUS43 KLMK 032302
RWRKY
KENTUCKY REGIONAL WEATHER ROUNDUP
NATIONAL WEATHER SERVICE LOUISVILLE KY
700 PM EDT MON AUG 03 2015

NOTE "FAIR" INDICATES FEW OR NO CLOUDS BELOW 12,000 FEET
WITH NO SIGNIFICANT WEATHER AND/OR OBSTRUCTIONS TO VISIBILITY.

KYZ001>023-026-027-061>063-070>075-040000-
WESTERN AND SOUTH CENTRAL KENTUCKY

CITY           SKY/WX    TMP DP  RH WIND       PRES   REMARKS
PADUCAH        MOSUNNY   92  70  48 W5        29.89S HX  97
HENDERSON      MOSUNNY   90  70  51 W9        29.86S HX  95
OWENSBORO      MOSUNNY   92  76  59 W10       29.87S HX 104
HOPKINSVILLE   MOSUNNY   90  72  55 SW12      29.90F HX  96
BOWLING GREEN  MOSUNNY   93  69  45 W8        29.89F HX  98
GLASGOW        NOT AVBL
$$

KYZ024-025-028>034-038-045-046-053-040000-
NORTH CENTRAL KENTUCKY

CITY           SKY/WX    TMP DP  RH WIND       PRES   REMARKS
LOUISVILLE/SDF MOSUNNY   91  67  44 W18       29.85R HX  94
LOUISVILLE/LOU PTSUNNY   90  66  45 W12G21    29.86R HX  92
FORT KNOX      SUNNY     87  69  54 W9G17     29.86S HX  91
$$

KYZ035>037-039>044-047>052-055>060-089>105-040000-
NORTHEAST KENTUCKY

CITY           SKY/WX    TMP DP  RH WIND       PRES   REMARKS
LEXINGTON      MOSUNNY   87  70  56 SW8       29.88S HX  92
COVINGTON      PTSUNNY   73  64  73 N18G44    29.88R THUNDER
FRANKFORT      MOSUNNY   87  67  51 W5        29.86R HX  90
$$

KYZ054-064>069-076>088-106>120-040000-
SOUTHEAST KENTUCKY

CITY           SKY/WX    TMP DP  RH WIND       PRES   REMARKS
JACKSON        SUNNY     84  70  62 CALM      29.93R
LONDON         MOSUNNY   88  66  48 SW8       29.92S HX  90
SOMERSET       NOT AVBL
MIDDLESBORO    MOSUNNY   86  68  54 S6        29.94S
MONTICELLO     CLEAR     88  72  58 SW8       29.95R HX  94
$$



USA.gov is the U.S. government's official web portal to all federal, state and local government web resources and services.